Surface/Precipitation History
01/19/2018 08:25  to  1/20/2018 08:25
Change End Date:
Date/Time
(MST)
Sf
Temp Chem Water Layer Surface Precipitation
Sfc Pvt Sub Frz Factor Pct Dpth DpthThk IcePct Cond Salin FI Type Intens Accum Rate
01/20/2018 08:16 Ice Warning 25.3F - 31F 32F 35 0% - - 99% 1 mhos 79 - None None - -
01/20/2018 08:10 Ice Warning 25.3F - 31F 32F 35 0% - - 99% 1 mhos 79 - None None - -
01/20/2018 08:01 Ice Warning 25.2F - 31F 32F 40 0% - - 99% 1 mhos 81 - None None - -
01/20/2018 08:00 Ice Warning 25.2F - 31F 32F 40 0% - - 99% 1 mhos 81 - None None - -
01/20/2018 07:50 Ice Warning 25.0F - 31F 32F 45 0% - - 99% 1 mhos 82 - None None - -
01/20/2018 07:46 Ice Warning 25.0F - 31F 32F 40 0% - - 99% 1 mhos 81 - None None - -
01/20/2018 07:40 Ice Warning 24.8F - 31F 32F 40 0% - - 99% 1 mhos 81 - None None - -
01/20/2018 07:31 Ice Warning 25.0F - 31F 32F 45 0% - - 99% 1 mhos 82 - None None - -
01/20/2018 07:29 Ice Warning 25.0F - 31F 32F 45 0% - - 99% 1 mhos 82 - None None - -
01/20/2018 07:19 Ice Warning 24.8F - 31F 32F 45 0% - - 99% 1 mhos 82 - None None - -
01/20/2018 07:16 Ice Warning 24.8F - 31F 32F 45 0% - - 99% 1 mhos 83 - None None - -
01/20/2018 07:09 Ice Warning 25.2F - 31F 32F 45 0% - - 99% 1 mhos 83 - None None - -
01/20/2018 07:01 Ice Warning 25.3F - 31F 32F 40 0% - - 99% 1 mhos 83 - Yes - - -
01/20/2018 06:59 Ice Warning 25.3F - 31F 32F 40 0% - - 99% 1 mhos 84 - None None - -
01/20/2018 06:49 Ice Warning 25.0F - 31F 32F 40 0% - - 99% 1 mhos 84 - None None - -
Date/Time
(MST)
Sf
Temp Chem Water Layer Surface Precipitation
Sfc Pvt Sub Frz Factor Pct Dpth DpthThk IcePct Cond Salin FI Type Intens Accum Rate
01/20/2018 06:46 Ice Warning 25.0F - 31F 32F 40 0% - - 99% 1 mhos 84 - None None - -
01/20/2018 06:39 Ice Warning 25.0F - 31F 32F 40 0% - - 99% 1 mhos 84 - None None - -
01/20/2018 06:31 Ice Warning 25.0F - 31F 32F 40 0% - - 99% 1 mhos 84 - None None - -
01/20/2018 06:29 Ice Warning 25.0F - 31F 32F 45 0% - - 99% 1 mhos 84 - None None - -
01/20/2018 06:19 Ice Warning 25.0F - 31F 32F 45 0% - - 99% 1 mhos 84 - None None - -
01/20/2018 06:16 Ice Warning 25.0F - 31F 32F 50 0% - - 99% 1 mhos 84 - None None - -
01/20/2018 06:09 Ice Warning 25.0F - 31F 32F 45 0% - - 99% 1 mhos 85 - None None - -
01/20/2018 06:01 Ice Warning 24.8F - 31F 32F 50 0% - - 99% 1 mhos 86 - None None - -
01/20/2018 05:59 Ice Warning 24.8F - 31F 32F 50 0% - - 99% 1 mhos 85 - None None - -
01/20/2018 05:49 Ice Warning 24.6F - 31F 32F 50 0% - - 99% 1 mhos 86 - None None - -
01/20/2018 05:46 Ice Warning 24.6F - 31F 32F 55 0% - - 99% 1 mhos 86 - None None - -
01/20/2018 05:39 Ice Warning 24.4F - 31F 32F 50 0% - - 99% 1 mhos 86 - None None - -
01/20/2018 05:31 Ice Warning 24.1F - 31F 32F 55 0% - - 99% 1 mhos 85 - None None - -
01/20/2018 05:29 Ice Warning 23.9F - 31F 32F 55 0% - - 99% 1 mhos 86 - None None - -
01/20/2018 05:19 Ice Warning 23.7F - 31F 32F 55 0% - - 99% 1 mhos 84 - None None - -
Date/Time
(MST)
Sf
Temp Chem Water Layer Surface Precipitation
Sfc Pvt Sub Frz Factor Pct Dpth DpthThk IcePct Cond Salin FI Type Intens Accum Rate
01/20/2018 05:16 Ice Warning 23.5F - 31F 32F 55 0% - - 99% 1 mhos 85 - None None - -
01/20/2018 05:09 Ice Warning 23.5F - 31F 32F 50 0% - - 99% 1 mhos 84 - None None - -
01/20/2018 05:01 Ice Warning 23.9F - 31F 32F 50 0% - - 99% 1 mhos 83 - None None - -
01/20/2018 04:58 Ice Warning 24.1F - 31F 32F 50 0% - - 99% 1 mhos 82 - None None - -
01/20/2018 04:48 Ice Warning 25.3F - 31F 32F 20 0% - - 99% 1 mhos 77 - None None - -
01/20/2018 04:46 Ice Warning 25.3F - 31F 32F 20 0% - - 99% 1 mhos 77 - None None - -
01/20/2018 04:38 Ice Warning 25.5F - 31F 32F 20 0% - - 99% 1 mhos 77 - None None - -
01/20/2018 04:31 Ice Warning 25.5F - 31F 32F 25 0% - - 99% 1 mhos 78 - None None - -
01/20/2018 04:28 Ice Warning 25.3F - 31F 32F 25 0% - - 99% 1 mhos 78 - None None - -
01/20/2018 04:18 Ice Warning 25.5F - 31F 32F 20 0% - - 99% 1 mhos 78 - None None - -
01/20/2018 04:16 Ice Warning 25.5F - 31F 32F 25 0% - - 99% 1 mhos 78 - None None - -
01/20/2018 04:08 Ice Warning 25.5F - 31F 32F 25 0% - - 99% 1 mhos 79 - None None - -
01/20/2018 04:01 Ice Warning 25.7F - 31F 32F 25 0% - - 99% 1 mhos 78 - None None - -
01/20/2018 03:58 Ice Warning 25.5F - 31F 32F 25 0% - - 99% 1 mhos 78 - None None - -
01/20/2018 03:48 Ice Warning 25.3F - 31F 32F 25 0% - - 99% 1 mhos 79 - None None - -
Date/Time
(MST)
Sf
Temp Chem Water Layer Surface Precipitation
Sfc Pvt Sub Frz Factor Pct Dpth DpthThk IcePct Cond Salin FI Type Intens Accum Rate
01/20/2018 03:46 Ice Warning 25.3F - 31F 32F 25 0% - - 99% 1 mhos 79 - None None - -
01/20/2018 03:38 Ice Warning 25.3F - 31F 32F 25 0% - - 99% 1 mhos 79 - None None - -
01/20/2018 03:31 Ice Warning 25.7F - 31F 32F 25 0% - - 99% 1 mhos 79 - None None - -
01/20/2018 03:28 Ice Warning 25.7F - 31F 32F 25 0% - - 99% 1 mhos 80 - None None - -
01/20/2018 03:18 Ice Warning 25.7F - 31F 32F 25 0% - - 99% 1 mhos 80 - None None - -
01/20/2018 03:16 Ice Warning 25.9F - 31F 32F 25 0% - - 99% 1 mhos 80 - None None - -
01/20/2018 03:08 Ice Warning 25.9F - 31F 32F 25 0% - - 99% 1 mhos 81 - None None - -
01/20/2018 03:01 Ice Warning 26.1F - 31F 32F 25 0% - - 99% 1 mhos 80 - None None - -
01/20/2018 02:58 Ice Warning 25.9F - 31F 32F 25 0% - - 99% 1 mhos 81 - None None - -
01/20/2018 02:48 Ice Warning 25.9F - 31F 32F 25 0% - - 99% 1 mhos 81 - None None - -
01/20/2018 02:46 Ice Warning 25.9F - 31F 32F 25 0% - - 99% 1 mhos 82 - None None - -
01/20/2018 02:38 Ice Warning 25.9F - 31F 32F 25 0% - - 99% 1 mhos 82 - None None - -
01/20/2018 02:31 Ice Warning 25.7F - 31F 32F 25 0% - - 99% 1 mhos 83 - None None - -
01/20/2018 02:28 Ice Warning 25.7F - 31F 32F 25 0% - - 99% 1 mhos 83 - None None - -
01/20/2018 02:17 Ice Warning 25.7F - 31F 32F 20 0% - - 99% 1 mhos 84 - None None - -
Date/Time
(MST)
Sf
Temp Chem Water Layer Surface Precipitation
Sfc Pvt Sub Frz Factor Pct Dpth DpthThk IcePct Cond Salin FI Type Intens Accum Rate
01/20/2018 02:16 Ice Warning 25.7F - 31F 32F 25 0% - - 99% 1 mhos 84 - None None - -
01/20/2018 02:07 Ice Warning 25.7F - 31F 32F 20 0% - - 99% 1 mhos 84 - None None - -
01/20/2018 02:01 Ice Warning 25.5F - 31F 32F 25 0% - - 99% 1 mhos 84 - Yes - - -
01/20/2018 01:57 Ice Warning 25.5F - 31F 32F 25 0% - - 99% 1 mhos 82 - Yes - - -
01/20/2018 01:47 Ice Warning 24.8F - 31F 32F 20 0% - - 99% 1 mhos 80 - Yes - - -
01/20/2018 01:46 Ice Warning 24.8F - 31F 32F 20 0% - - 99% 1 mhos 80 - Yes - - -
01/20/2018 01:37 Ice Warning 24.4F - 31F 32F 20 0% - - 99% 1 mhos 78 - None None - -
01/20/2018 01:31 Ice Warning 24.1F - 31F 32F 20 0% - - 99% 1 mhos 78 - None None - -
01/20/2018 01:27 Ice Warning 23.9F - 31F 32F 20 0% - - 99% 1 mhos 78 - None None - -
01/20/2018 01:17 Ice Warning 24.4F - 31F 32F 20 0% - - 99% 1 mhos 77 - None None - -
01/20/2018 01:16 Ice Warning 24.4F - 31F 32F 20 0% - - 99% 1 mhos 77 - None None - -
01/20/2018 01:07 Ice Warning 24.6F - 31F 32F 20 0% - - 99% 1 mhos 77 - None None - -
01/20/2018 01:01 Ice Warning 24.6F - 31F 32F 20 0% - - 99% 1 mhos 77 - None None - -
01/20/2018 00:57 Ice Warning 24.6F - 31F 32F 20 0% - - 99% 1 mhos 77 - None None - -
01/20/2018 00:47 Ice Warning 24.6F - 31F 32F 20 0% - - 99% 1 mhos 77 - None None - -
Date/Time
(MST)
Sf
Temp Chem Water Layer Surface Precipitation
Sfc Pvt Sub Frz Factor Pct Dpth DpthThk IcePct Cond Salin FI Type Intens Accum Rate
01/20/2018 00:46 Ice Warning 24.6F - 31F 32F 20 0% - - 99% 1 mhos 77 - None None - -
01/20/2018 00:37 Ice Warning 24.6F - 31F 32F 25 0% - - 99% 1 mhos 79 - None None - -
01/20/2018 00:31 Ice Warning 24.8F - 31F 32F 25 0% - - 99% 1 mhos 80 - None None - -
01/20/2018 00:27 Ice Warning 25.0F - 31F 32F 25 0% - - 99% 1 mhos 81 - None None - -
01/20/2018 00:17 Ice Warning 25.5F - 31F 32F 25 0% - - 99% 1 mhos 97 - Yes - - -
01/20/2018 00:16 Ice Warning 25.5F - 31F 32F 25 0% - - 99% 1 mhos 98 - Yes - - -
01/20/2018 00:07 Ice Warning 26.4F - 31F 32F 30 0% - - 98% 1 mhos 106 - Yes - - -
01/20/2018 00:01 Ice Warning 26.8F - 31F 32F 30 1% - - 97% 1 mhos 150 - None None - -
01/19/2018 23:57 Ice Warning 26.4F - 31F 32F 30 1% - - 97% 1 mhos 151 - None None - -
01/19/2018 23:47 Ice Warning 26.4F - 31F 32F 30 1% - - 97% 1 mhos 156 - None None - -
01/19/2018 23:46 Ice Warning 26.6F - 31F 32F 30 1% - - 97% 1 mhos 163 - Yes - - -
01/19/2018 23:37 Ice Warning 26.4F - 31F 31F 30 2% - - 91% 4 mhos 497 - None None - -
01/19/2018 23:31 Ice Warning 26.6F - 31F 31F 30 2% - - 91% 5 mhos 524 - Yes - - -
01/19/2018 23:27 Ice Warning 26.8F - 31F 31F 30 2% - - 90% 5 mhos 537 - None None - -
01/19/2018 23:17 Ice Warning 26.6F - 31F 31F 30 2% - - 90% 5 mhos 538 - None None - -
Date/Time
(MST)
Sf
Temp Chem Water Layer Surface Precipitation
Sfc Pvt Sub Frz Factor Pct Dpth DpthThk IcePct Cond Salin FI Type Intens Accum Rate
01/19/2018 23:16 Ice Warning 26.6F - 31F 31F 30 2% - - 90% 5 mhos 535 - None None - -
01/19/2018 23:07 Ice Warning 26.4F - 31F 31F 30 2% - - 91% 5 mhos 536 - None None - -
01/19/2018 23:01 Ice Warning 26.1F - 31F 31F 30 2% - - 91% 5 mhos 540 - None None - -
01/19/2018 22:56 Ice Warning 25.7F - 31F 31F 30 2% - - 91% 5 mhos 549 - None None - -
01/19/2018 22:46 Ice Warning 25.7F - 31F 31F 30 2% - - 91% 5 mhos 575 - None None - -
01/19/2018 22:46 Ice Warning 25.7F - 31F 31F 30 2% - - 91% 5 mhos 575 - None None - -
01/19/2018 22:36 Ice Warning 26.2F - 31F 31F 30 2% - - 90% 5 mhos 605 - None None - -
01/19/2018 22:31 Ice Warning 27.0F - 31F 31F 30 2% - - 88% 5 mhos 622 - None None - -
01/19/2018 22:26 Ice Warning 27.3F - 31F 31F 35 3% - - 85% 6 mhos 685 - None None - -
01/19/2018 22:16 Chemically Wet 27.3F - 31F 31F 35 3% - - 85% 6 mhos 709 - None None - -
01/19/2018 22:16 Chemically Wet 27.3F - 31F 31F 35 3% - - 85% 6 mhos 709 - None None - -
01/19/2018 22:06 Chemically Wet 27.3F - 31F 31F 35 3% - - 84% 6 mhos 739 - None None - -
01/19/2018 22:01 Chemically Wet 27.1F - 31F 31F 35 3% - - 84% 7 mhos 774 - None None - -
01/19/2018 21:56 Chemically Wet 27.1F - 31F 31F 40 3% - - 83% 7 mhos 812 - None None - -
01/19/2018 21:46 Chemically Wet 27.1F - 31F 31F 45 3% - - 82% 7 mhos 865 - None None - -
Date/Time
(MST)
Sf
Temp Chem Water Layer Surface Precipitation
Sfc Pvt Sub Frz Factor Pct Dpth DpthThk IcePct Cond Salin FI Type Intens Accum Rate
01/19/2018 21:46 Chemically Wet 27.1F - 31F 31F 45 3% - - 82% 7 mhos 865 - None None - -
01/19/2018 21:36 Chemically Wet 27.0F - 31F 31F 45 3% - - 83% 7 mhos 867 - None None - -
01/19/2018 21:31 Chemically Wet 27.0F - 31F 31F 45 3% - - 83% 8 mhos 875 - None None - -
01/19/2018 21:26 Chemically Wet 27.0F - 31F 31F 45 3% - - 83% 8 mhos 877 - None None - -
01/19/2018 21:16 Ice Warning 26.4F - 31F 31F 50 3% - - 85% 7 mhos 853 - None None - -
01/19/2018 21:16 Ice Warning 26.4F - 31F 31F 50 3% - - 85% 7 mhos 853 - None None - -
01/19/2018 21:06 Ice Warning 26.1F - 31F 31F 50 3% - - 87% 6 mhos 760 - None None - -
01/19/2018 21:01 Ice Warning 25.9F - 31F 31F 50 3% - - 88% 6 mhos 728 - None None - -
01/19/2018 20:56 Ice Warning 26.1F - 31F 31F 45 2% - - 90% 5 mhos 622 - None None - -
01/19/2018 20:46 Ice Warning 26.6F - 31F 32F 50 0% - - 99% 1 mhos 81 - None None - -
01/19/2018 20:46 Ice Warning 26.6F - 31F 32F 50 0% - - 99% 1 mhos 81 - None None - -
01/19/2018 20:36 Ice Warning 26.6F - 31F 32F 35 0% - - 99% 1 mhos 66 - None None - -
01/19/2018 20:31 Ice Warning 26.6F - 31F 32F 35 0% - - 99% 1 mhos 63 - None None - -
01/19/2018 20:26 Ice Warning 26.6F - 31F 32F 15 0% - - 99% 0 mhos 56 - None None - -
01/19/2018 20:16 Ice Warning 26.2F - 31F 32F 15 0% - - 99% 0 mhos 55 - None None - -
Date/Time
(MST)
Sf
Temp Chem Water Layer Surface Precipitation
Sfc Pvt Sub Frz Factor Pct Dpth DpthThk IcePct Cond Salin FI Type Intens Accum Rate
01/19/2018 20:16 Ice Warning 26.2F - 31F 32F 15 0% - - 99% 0 mhos 55 - None None - -
01/19/2018 20:06 Ice Warning 25.9F - 31F 32F 10 0% - - 99% 0 mhos 55 - None None - -
01/19/2018 20:01 Ice Warning 26.1F - 31F 32F 15 0% - - 99% 0 mhos 55 - None None - -
01/19/2018 19:56 Ice Warning 25.9F - 31F 32F 15 0% - - 99% 0 mhos 55 - None None - -
01/19/2018 19:46 Ice Warning 25.3F - 31F 32F 10 0% - - 99% 0 mhos 53 - None None - -
01/19/2018 19:45 Ice Warning 25.3F - 31F 32F 10 0% - - 99% 0 mhos 53 - None None - -
01/19/2018 19:35 Ice Warning 25.3F - 31F 32F 10 0% - - 99% 0 mhos 53 - None None - -
01/19/2018 19:31 Ice Warning 25.3F - 31F 32F 10 0% - - 99% 0 mhos 53 - None None - -
01/19/2018 19:25 Ice Warning 25.2F - 31F 32F 10 0% - - 99% 0 mhos 52 - None None - -
01/19/2018 19:16 Ice Warning 24.8F - 31F 32F 10 0% - - 99% 0 mhos 53 - None None - -
01/19/2018 19:15 Ice Warning 24.8F - 31F 32F 10 0% - - 99% 0 mhos 53 - None None - -
01/19/2018 19:05 Ice Warning 25.0F - 31F 32F 10 0% - - 99% 0 mhos 53 - None None - -
01/19/2018 19:01 Ice Warning 25.0F - 31F 32F 10 0% - - 99% 0 mhos 54 - None None - -
01/19/2018 18:55 Ice Warning 25.2F - 31F 32F 10 0% - - 99% 0 mhos 54 - None None - -
01/19/2018 18:46 Ice Warning 25.7F - 31F 32F 15 0% - - 99% 0 mhos 56 - None None - -
Date/Time
(MST)
Sf
Temp Chem Water Layer Surface Precipitation
Sfc Pvt Sub Frz Factor Pct Dpth DpthThk IcePct Cond Salin FI Type Intens Accum Rate
01/19/2018 18:45 Ice Warning 25.7F - 31F 32F 15 0% - - 99% 0 mhos 56 - None None - -
01/19/2018 18:35 Ice Warning 25.7F - 31F 32F 15 0% - - 99% 0 mhos 57 - None None - -
01/19/2018 18:31 Ice Warning 25.7F - 31F 32F 15 0% - - 99% 0 mhos 58 - None None - -
01/19/2018 18:25 Ice Warning 26.1F - 31F 32F 15 0% - - 99% 1 mhos 59 - None None - -
01/19/2018 18:16 Ice Warning 26.4F - 31F 32F 20 0% - - 99% 1 mhos 60 - None None - -
01/19/2018 18:15 Ice Warning 26.4F - 31F 32F 20 0% - - 99% 1 mhos 60 - None None - -
01/19/2018 18:05 Ice Warning 26.6F - 31F 32F 20 0% - - 99% 1 mhos 60 - Yes - - -
01/19/2018 18:01 Ice Warning 26.6F - 31F 32F 20 0% - - 99% 1 mhos 60 - None None - -
01/19/2018 17:55 Ice Warning 26.8F - 31F 32F 20 0% - - 99% 1 mhos 61 - None None - -
01/19/2018 17:46 Ice Warning 27.3F - 31F 32F 25 0% - - 99% 1 mhos 63 - None None - -
01/19/2018 17:45 Ice Warning 27.3F - 31F 32F 20 0% - - 99% 1 mhos 63 - None None - -
01/19/2018 17:35 Ice Warning 28.2F - 31F 32F 30 0% - - 98% 1 mhos 68 - None None - -
01/19/2018 17:31 Ice Warning 28.6F - 31F 32F 35 0% - - 98% 1 mhos 70 - None None - -
01/19/2018 17:24 Ice Warning 29.1F - 31F 32F 40 0% - - 97% 1 mhos 74 - None None - -
01/19/2018 17:16 Ice Warning 29.1F - 31F 32F 30 0% - - 97% 1 mhos 80 - None None - -
Date/Time
(MST)
Sf
Temp Chem Water Layer Surface Precipitation
Sfc Pvt Sub Frz Factor Pct Dpth DpthThk IcePct Cond Salin FI Type Intens Accum Rate
01/19/2018 17:14 Ice Warning 29.1F - 31F 32F 30 0% - - 97% 1 mhos 81 - None None - -
01/19/2018 17:04 Ice Warning 29.7F - 31F 32F 35 0% - - 95% 1 mhos 119 - Yes - - -
01/19/2018 17:01 Ice Warning 30.0F - 31F 32F 40 1% - - 93% 1 mhos 140 - None None - -
01/19/2018 16:54 Ice Warning 30.2F - 31F 32F 45 1% - - 89% 2 mhos 188 - None None - -
01/19/2018 16:46 Chemically Wet 30.6F - 31F 32F 55 1% - - 77% 3 mhos 309 - None None - -
01/19/2018 16:44 Chemically Wet 30.6F - 31F 32F 50 1% - - 77% 3 mhos 309 - Yes - - -
01/19/2018 16:34 Chemically Wet 31.1F - 31F 32F 55 1% - - 61% 3 mhos 352 - None None - -
01/19/2018 16:31 Chemically Wet 31.3F - 31F 32F 60 1% - - 51% 3 mhos 363 - None None - -
01/19/2018 16:24 Chemically Wet 31.5F - 31F 32F 65 2% - - 11% 4 mhos 393 - Yes - - -
01/19/2018 16:16 Wet 32.2F - 31F 32F 65 1% 0.00 in - 0% 3 mhos 373 - None None - -
01/19/2018 16:14 Wet 32.2F - 31F 32F 75 1% 0.00 in - 0% 4 mhos 381 - None None - -
01/19/2018 16:04 Chemically Wet 32.0F - 31F 32F 70 1% 0.00 in - 0% 3 mhos 287 - Yes - - -
01/19/2018 16:01 Wet 32.4F - 31F 32F 65 1% 0.00 in - 0% 3 mhos 314 - Yes - - -
01/19/2018 15:54 Wet 33.6F - 31F 32F 65 1% 0.00 in - 0% 3 mhos 330 - Yes - - -
01/19/2018 15:46 Wet 33.4F - 31F 32F 55 1% 0.00 in - 0% 3 mhos 323 - Yes - - -
Date/Time
(MST)
Sf
Temp Chem Water Layer Surface Precipitation
Sfc Pvt Sub Frz Factor Pct Dpth DpthThk IcePct Cond Salin FI Type Intens Accum Rate
01/19/2018 15:44 Wet 33.8F - 31F 32F 65 2% 0.00 in - 0% 4 mhos 391 - None None - -
01/19/2018 15:34 Wet 33.6F - 31F 31F 75 2% 0.00 in - 0% 5 mhos 477 - Yes - - -
01/19/2018 15:31 Wet 35.1F - 31F 31F 80 2% 0.00 in - 0% 4 mhos 453 - Yes - - -
01/19/2018 15:24 Wet 34.3F - 31F 31F 70 2% 0.00 in - 0% 4 mhos 441 - Yes - - -
01/19/2018 15:16 Wet 35.2F - 31F 31F 80 2% 0.00 in - 0% 5 mhos 506 - Yes - - -
01/19/2018 15:14 Wet 35.1F - 31F 31F 80 2% 0.00 in - 0% 5 mhos 501 - Yes - - -
01/19/2018 15:04 Wet 37.4F - 31F 32F 65 2% 0.00 in - 0% 4 mhos 399 - Yes - - -
01/19/2018 15:01 Wet 37.4F - 31F 31F 70 2% 0.00 in - 0% 5 mhos 490 - None None - -
01/19/2018 14:54 Wet 36.0F - 31F 31F 90 2% 0.00 in - 0% 4 mhos 432 - None None - -
01/19/2018 14:46 Wet 36.1F - 31F 32F 95 1% 0.00 in - 0% 4 mhos 370 - Yes - - -
01/19/2018 14:44 Wet 35.1F - 31F 32F 90 1% 0.00 in - 0% 3 mhos 343 - None None - -
01/19/2018 14:34 Wet 35.4F - 31F 32F 95 2% 0.00 in - 0% 4 mhos 391 - Yes - - -
01/19/2018 14:31 Wet 35.6F - 31F 31F 95 3% 0.00 in - 0% 7 mhos 698 - Yes - - -
01/19/2018 14:24 Wet 35.1F - 31F 31F 95 2% 0.00 in - 0% 6 mhos 613 - Yes - - -
01/19/2018 14:16 Wet 35.2F - 31F 32F 95 2% 0.00 in - 0% 4 mhos 413 - None None - -
Date/Time
(MST)
Sf
Temp Chem Water Layer Surface Precipitation
Sfc Pvt Sub Frz Factor Pct Dpth DpthThk IcePct Cond Salin FI Type Intens Accum Rate
01/19/2018 14:14 Wet 35.4F - 31F 31F 95 2% 0.00 in - 0% 5 mhos 525 - None None - -
01/19/2018 14:04 Wet 36.1F - 31F 31F 95 2% 0.00 in - 0% 6 mhos 585 - Yes - - -
01/19/2018 14:01 Wet 36.1F - 31F 31F 95 3% 0.00 in - 0% 7 mhos 700 - Yes - - -
01/19/2018 13:54 Wet 36.9F - 31F 31F 95 3% 0.00 in - 0% 7 mhos 710 - None None - -
01/19/2018 13:46 Wet 36.9F - 31F 31F 95 3% 0.00 in - 0% 8 mhos 834 - Yes - - -
01/19/2018 13:43 Wet 37.0F - 31F 31F 95 3% 0.00 in - 0% 8 mhos 841 - Yes - - -
01/19/2018 13:33 Wet 37.0F - 31F 31F 95 3% 0.00 in - 0% 8 mhos 836 - Yes - - -
01/19/2018 13:31 Wet 36.9F - 31F 31F 95 3% 0.00 in - 0% 8 mhos 810 - None None - -
01/19/2018 13:23 Wet 37.4F - 31F 31F 95 3% 0.00 in - 0% 9 mhos 861 - None None - -
01/19/2018 13:16 Wet 36.9F - 31F 31F 95 2% 0.00 in - 0% 6 mhos 558 - None None - -
01/19/2018 13:13 Wet 37.0F - 31F 32F 95 1% 0.00 in - 0% 3 mhos 317 - Yes - - -
01/19/2018 13:03 Wet 37.4F - 31F 31F 95 2% 0.00 in - 0% 6 mhos 633 - None None - -
01/19/2018 13:01 Wet 37.8F - 31F 31F 95 3% 0.00 in - 0% 7 mhos 737 - None None - -
01/19/2018 12:53 Wet 37.4F - 31F 31F 95 3% 0.00 in - 0% 9 mhos 867 - Yes - - -
01/19/2018 12:46 Wet 37.6F - 31F 31F 95 2% 0.00 in - 0% 6 mhos 623 - None None - -
Date/Time
(MST)
Sf
Temp Chem Water Layer Surface Precipitation
Sfc Pvt Sub Frz Factor Pct Dpth DpthThk IcePct Cond Salin FI Type Intens Accum Rate
01/19/2018 12:43 Wet 37.4F - 31F 31F 95 2% 0.00 in - 0% 6 mhos 628 - None None - -
01/19/2018 12:33 Wet 37.2F - 31F 31F 95 3% 0.00 in - 0% 9 mhos 893 - None None - -
01/19/2018 12:31 Wet 36.9F - 31F 31F 95 3% 0.00 in - 0% 9 mhos 900 - None None - -
01/19/2018 12:23 Wet 36.5F - 31F 31F 95 3% 0.00 in - 0% 9 mhos 876 - None None - -
01/19/2018 12:16 Wet 36.0F - 31F 31F 95 3% 0.00 in - 0% 8 mhos 841 - None None - -
01/19/2018 12:13 Wet 36.0F - 31F 31F 95 3% 0.00 in - 0% 8 mhos 821 - None None - -
01/19/2018 12:03 Wet 35.4F - 31F 31F 95 3% 0.00 in - 0% 7 mhos 707 - None None - -
01/19/2018 12:01 Wet 34.9F - 31F 32F 95 0% 0.00 in - 0% 1 mhos 91 - None None - -
01/19/2018 11:53 Wet 33.3F - 31F 31F 95 3% 0.00 in - 0% 7 mhos 768 - None None - -
01/19/2018 11:46 Wet 32.4F - 31F 31F 95 3% 0.10 in - 0% 7 mhos 720 - Yes - - -
01/19/2018 11:43 Wet 32.5F - 31F 31F 95 2% 0.00 in - 0% 5 mhos 573 - None None - -
01/19/2018 11:33 Wet 32.4F - 31F 31F 95 3% 0.10 in - 0% 8 mhos 894 - None None - -
01/19/2018 11:31 Chemically Wet 31.8F - 31F 31F 95 3% 0.00 in - 0% 7 mhos 765 - None None - -
01/19/2018 11:23 Ice Warning 31.5F - 31F 32F 95 0% - - 92% 0 mhos 36 - None None - -
01/19/2018 11:16 Ice Warning 31.5F - 31F 32F 95 0% - - 94% 0 mhos 33 - None None - -
Date/Time
(MST)
Sf
Temp Chem Water Layer Surface Precipitation
Sfc Pvt Sub Frz Factor Pct Dpth DpthThk IcePct Cond Salin FI Type Intens Accum Rate
01/19/2018 11:13 Ice Warning 31.5F - 31F 32F 95 0% - - 95% 0 mhos 31 - None None - -
01/19/2018 11:03 Ice Warning 31.3F - 31F 32F 95 0% - - 97% 0 mhos 26 - None None - -
01/19/2018 11:01 Ice Warning 31.3F - 31F 32F 95 0% - - 97% 0 mhos 24 - None None - -
01/19/2018 10:52 Ice Warning 31.1F - 31F 32F 95 0% - - 98% 0 mhos 21 - Yes - - -
01/19/2018 10:46 Ice Warning 30.9F - 31F 32F 95 0% - - 98% 0 mhos 19 - None None - -
01/19/2018 10:42 Ice Warning 30.9F - 31F 32F 95 0% - - 98% 0 mhos 19 - None None - -
01/19/2018 10:32 Ice Warning 30.7F - 31F 32F 95 0% - - 99% 0 mhos 17 - None None - -
01/19/2018 10:31 Ice Warning 30.7F - 31F 32F 95 0% - - 99% 0 mhos 17 - None None - -
01/19/2018 10:22 Ice Warning 30.7F - 31F 32F 95 0% - - 99% 0 mhos 14 - None None - -
01/19/2018 10:16 Ice Warning 30.6F - 31F 32F 95 0% - - 99% 0 mhos 14 - None None - -
01/19/2018 10:12 Ice Warning 30.6F - 31F 32F 95 0% - - 99% 0 mhos 13 - None None - -
01/19/2018 10:02 Ice Warning 30.4F - 31F 32F 95 0% - - 99% 0 mhos 12 - None None - -
01/19/2018 10:01 Ice Warning 30.4F - 31F 32F 95 0% - - 99% 0 mhos 12 - None None - -
01/19/2018 09:52 Ice Warning 30.2F - 31F 32F 95 0% - - 100% 0 mhos 9 - None None - -
01/19/2018 09:46 Ice Warning 30.2F - 31F 32F 95 0% - - 100% 0 mhos 7 - None None - -
Date/Time
(MST)
Sf
Temp Chem Water Layer Surface Precipitation
Sfc Pvt Sub Frz Factor Pct Dpth DpthThk IcePct Cond Salin FI Type Intens Accum Rate
01/19/2018 09:42 Ice Warning 30.2F - 31F 32F 95 0% - - 100% 0 mhos 6 - None None - -
01/19/2018 09:32 Ice Warning 30.0F - 31F 32F 95 0% - - 100% 0 mhos 6 - None None - -
01/19/2018 09:31 Ice Warning 29.8F - 31F 32F 95 0% - - 100% 0 mhos 6 - None None - -
01/19/2018 09:22 Ice Warning 29.8F - 31F 32F 95 0% - - 100% 0 mhos 6 - None None - -
01/19/2018 09:16 Ice Warning 29.7F - 31F 32F 95 0% - - 100% 0 mhos 6 - None None - -
01/19/2018 09:12 Ice Warning 29.7F - 31F 32F 95 0% - - 100% 0 mhos 5 - None None - -
01/19/2018 09:02 Ice Warning 29.5F - 31F 32F 95 0% - - 100% 0 mhos 6 - None None - -
01/19/2018 09:01 Ice Warning 29.5F - 31F 32F 95 0% - - 100% 0 mhos 5 - None None - -
01/19/2018 08:52 Ice Warning 29.5F - 31F 32F 95 0% - - 100% 0 mhos 5 - None None - -
01/19/2018 08:46 Ice Warning 29.3F - 31F 32F 95 0% - - 100% 0 mhos 6 - None None - -
01/19/2018 08:42 Ice Warning 29.3F - 31F 32F 95 0% - - 100% 0 mhos 6 - None None - -
01/19/2018 08:32 Ice Warning 29.3F - 31F 32F 95 0% - - 100% 0 mhos 5 - None None - -
01/19/2018 08:31 Ice Warning 29.3F - 31F 32F 95 0% - - 100% 0 mhos 5 - None None - -
Change End Date:

Copyright © 1998-2015 Vaisala, Inc.
All Rights Reserved
Send comments about the data to:
SCAN Web ® is a registered trademark of Vaisala, Inc.
SCAN Web Version 6.0